Telluride, CO

10:48 AM MST on December 05, 2019 (GMT -0700)
Telluride Regional

Weather History for KTEX - November, 2019

Change the Weather History Date:

Saturday, November 16, 2019

  Actual Average Record
Temperature  
Mean Temperature 40 °F -  
Max Temperature 50 °F 38 °F 57 °F (2016)
Min Temperature 30 °F 22 °F 3 °F (2000)
Degree Days  
Heating Degree Days 25    
Moisture  
Dew Point 17 °F    
Average Humidity 43    
Maximum Humidity 60    
Minimum Humidity 24    
Precipitation  
Precipitation 0.00 in - - ()
Sea Level Pressure  
Sea Level Pressure 30.30 in    
Wind  
Wind Speed 5 mph (SSW)    
Max Wind Speed 14 mph    
Max Gust Speed 21 mph    
Visibility 10 miles    
Events      
Averages and records for this station are not official NWS values.
T = Trace of Precipitation, MM = Missing Value Source: NWS Daily Summary

Daily Weather History Graph

Daily Weather History Graph

Search for Another Location

Airport or City:

Astronomy

Nov. 16, 2019 Rise Set
Actual Time 6:53 AM MST 4:59 PM MST
Civil Twilight 6:24 AM MST 5:27 PM MST
Nautical Twilight 5:53 AM MST 5:59 PM MST
Astronomical Twilight 5:21 AM MST 6:30 PM MST
Moon 8:36 PM MST (11/16) 10:47 AM MST (11/16)
Length of Visible Light 11h 02m
Length of Day
10h 06m
Waning Gibbous, 82% of the Moon is Illuminated
Nov 16
Waning Gibbous
Nov 19
Last Quarter
Nov 26
New
Dec 3
First Quarter
Dec 11
Full

Hourly Weather History & Observations

Time (MST) Temp. Windchill Dew Point Humidity Pressure Visibility Wind Dir Wind Speed Gust Speed Precip Events Conditions
12:15 AM 37.4 °F 33.8 °F 14.0 °F 38% 30.33 in 10.0 mi SE 4.6 mph - N/A   Clear
12:35 AM 37.4 °F 34.9 °F 14.0 °F 38% 30.33 in 10.0 mi SE 3.5 mph - N/A   Clear
12:55 AM 37.4 °F - 14.0 °F 38% 30.33 in 10.0 mi Calm Calm - N/A   Clear
1:15 AM 35.6 °F - 14.0 °F 41% 30.33 in 10.0 mi Calm Calm - N/A   Clear
1:35 AM 35.6 °F - 14.0 °F 41% 30.33 in 10.0 mi Calm Calm - N/A   Clear
1:55 AM 35.6 °F 29.2 °F 15.8 °F 44% 30.33 in 10.0 mi SE 8.1 mph - N/A   Clear
2:15 AM 35.6 °F 30.7 °F 15.8 °F 44% 30.33 in 10.0 mi SE 5.8 mph - N/A   Clear
2:35 AM 33.8 °F 28.6 °F 15.8 °F 48% 30.33 in 10.0 mi ESE 5.8 mph - N/A   Clear
2:55 AM 35.6 °F 30.7 °F 15.8 °F 44% 30.32 in 10.0 mi SE 5.8 mph - N/A   Clear
3:15 AM 33.8 °F 28.6 °F 17.6 °F 52% 30.31 in 10.0 mi SE 5.8 mph - N/A   Clear
3:35 AM 33.8 °F 29.6 °F 17.6 °F 52% 30.31 in 10.0 mi SSE 4.6 mph - N/A   Clear
3:55 AM 35.6 °F 30.7 °F 17.6 °F 48% 30.31 in 10.0 mi SE 5.8 mph - N/A   Clear
4:15 AM 33.8 °F 30.8 °F 17.6 °F 52% 30.31 in 10.0 mi SSE 3.5 mph - N/A   Clear
4:35 AM 33.8 °F 28.6 °F 17.6 °F 52% 30.30 in 10.0 mi SSE 5.8 mph - N/A   Clear
4:55 AM 35.6 °F 31.7 °F 17.6 °F 48% 30.30 in 10.0 mi ESE 4.6 mph - N/A   Clear
5:15 AM 33.8 °F 28.6 °F 17.6 °F 52% 30.29 in 10.0 mi SE 5.8 mph - N/A   Clear
5:35 AM 35.6 °F 32.8 °F 17.6 °F 48% 30.29 in 10.0 mi SSE 3.5 mph - N/A   Clear
5:55 AM 33.8 °F 30.8 °F 17.6 °F 52% 30.30 in 10.0 mi ESE 3.5 mph - N/A   Clear
6:15 AM 33.8 °F 28.6 °F 17.6 °F 52% 30.30 in 10.0 mi SE 5.8 mph - N/A   Clear
6:35 AM 33.8 °F 28.6 °F 17.6 °F 52% 30.31 in 10.0 mi ESE 5.8 mph - N/A   Scattered Clouds
6:55 AM 33.8 °F 28.6 °F 19.4 °F 56% 30.31 in 10.0 mi ESE 5.8 mph - N/A   Clear
7:15 AM 35.6 °F 32.8 °F 19.4 °F 52% 30.31 in 10.0 mi SE 3.5 mph - N/A   Scattered Clouds
7:35 AM 35.6 °F 31.7 °F 19.4 °F 52% 30.31 in 10.0 mi ESE 4.6 mph - N/A   Scattered Clouds
7:55 AM 35.6 °F 30.7 °F 19.4 °F 52% 30.32 in 10.0 mi SE 5.8 mph - N/A   Mostly Cloudy
8:15 AM 35.6 °F 31.7 °F 19.4 °F 52% 30.31 in 10.0 mi SE 4.6 mph - N/A   Mostly Cloudy
8:30 AM 37.4 °F 34.9 °F 19.4 °F 48% 30.32 in 10.0 mi ESE 3.5 mph - N/A   Scattered Clouds
8:55 AM 41.0 °F - 17.6 °F 39% 30.32 in 10.0 mi Calm Calm - N/A   Scattered Clouds
9:15 AM 41.0 °F 39.0 °F 17.6 °F 39% 30.31 in 10.0 mi South 3.5 mph - N/A   Clear
9:35 AM 44.6 °F 43.1 °F 17.6 °F 34% 30.32 in 10.0 mi West 3.5 mph - N/A   Clear
9:55 AM 46.4 °F 41.9 °F 17.6 °F 32% 30.32 in 10.0 mi West 9.2 mph - N/A   Clear
10:35 AM 46.4 °F 41.9 °F 19.4 °F 34% 30.32 in 10.0 mi West 9.2 mph - N/A   Clear
10:55 AM 46.4 °F 41.9 °F 19.4 °F 34% 30.31 in 10.0 mi West 9.2 mph - N/A   Clear
11:15 AM 46.4 °F 40.4 °F 17.6 °F 32% 30.30 in 10.0 mi West 13.8 mph 18.4 mph N/A   Clear
11:35 AM 48.2 °F - 17.6 °F 30% 30.30 in 10.0 mi West 10.4 mph 20.7 mph N/A   Clear
11:55 AM 48.2 °F - 17.6 °F 30% 30.28 in 10.0 mi West 10.4 mph 18.4 mph N/A   Clear
12:15 PM 48.2 °F - 17.6 °F 30% 30.27 in 10.0 mi West 10.4 mph 16.1 mph N/A   Clear
12:35 PM 50.0 °F - 17.6 °F 28% 30.27 in 10.0 mi West 12.7 mph 17.3 mph N/A   Clear
12:55 PM 50.0 °F - 17.6 °F 28% 30.26 in 10.0 mi West 13.8 mph - N/A   Clear
1:15 PM 50.0 °F - 15.8 °F 26% 30.25 in 10.0 mi West 12.7 mph - N/A   Clear
1:35 PM 50.0 °F - 14.0 °F 24% 30.25 in 10.0 mi West 13.8 mph - N/A   Clear
1:55 PM 50.0 °F - 15.8 °F 26% 30.24 in 10.0 mi West 13.8 mph - N/A   Clear
2:15 PM 50.0 °F - 15.8 °F 26% 30.23 in 10.0 mi West 9.2 mph - N/A   Clear
2:35 PM 48.2 °F - 14.0 °F 25% 30.23 in 10.0 mi West 12.7 mph - N/A   Clear
2:55 PM 48.2 °F - 15.8 °F 27% 30.23 in 10.0 mi West 11.5 mph - N/A   Clear
3:15 PM 46.4 °F 40.4 °F 15.8 °F 29% 30.24 in 10.0 mi West 13.8 mph - N/A   Clear
3:55 PM 46.4 °F 41.1 °F 17.6 °F 32% 30.25 in 10.0 mi West 11.5 mph - N/A   Clear
4:15 PM 44.6 °F 38.8 °F 17.6 °F 34% 30.26 in 10.0 mi West 11.5 mph - N/A   Clear
4:35 PM 44.6 °F 39.2 °F 17.6 °F 34% 30.25 in 10.0 mi West 10.4 mph - N/A   Clear
4:55 PM 42.8 °F 38.0 °F 17.6 °F 36% 30.26 in 10.0 mi WNW 8.1 mph - N/A   Clear
5:15 PM 42.8 °F 40.1 °F 17.6 °F 36% 30.27 in 10.0 mi WNW 4.6 mph - N/A   Clear
5:35 PM 42.8 °F 41.1 °F 17.6 °F 36% 30.28 in 10.0 mi West 3.5 mph - N/A   Clear
6:15 PM 41.0 °F 38.0 °F 17.6 °F 39% 30.29 in 10.0 mi WSW 4.6 mph - N/A   Clear
6:35 PM 37.4 °F 33.8 °F 17.6 °F 45% 30.29 in 10.0 mi SW 4.6 mph - N/A   Clear
6:55 PM 37.4 °F - 17.6 °F 45% 30.30 in 10.0 mi Calm Calm - N/A   Clear
7:15 PM 37.4 °F 32.8 °F 17.6 °F 45% 30.30 in 10.0 mi WSW 5.8 mph - N/A   Clear
7:35 PM 35.6 °F 30.7 °F 17.6 °F 48% 30.30 in 10.0 mi SW 5.8 mph - N/A   Clear
7:55 PM 35.6 °F - 17.6 °F 48% 30.31 in 10.0 mi Calm Calm - N/A   Clear
8:15 PM 35.6 °F - 17.6 °F 48% 30.31 in 10.0 mi Calm Calm - N/A   Clear
8:35 PM 35.6 °F - 17.6 °F 48% 30.31 in 10.0 mi Calm Calm - N/A   Clear
8:55 PM 33.8 °F - 17.6 °F 52% 30.31 in 10.0 mi Calm Calm - N/A   Clear
9:15 PM 33.8 °F - 17.6 °F 52% 30.31 in 10.0 mi Calm Calm - N/A   Clear
9:35 PM 33.8 °F - 17.6 °F 52% 30.31 in 10.0 mi Calm Calm - N/A   Clear
9:55 PM 32.0 °F - 17.6 °F 55% 30.31 in 10.0 mi Calm Calm - N/A   Clear
10:15 PM 32.0 °F - 17.6 °F 55% 30.31 in 10.0 mi Calm Calm - N/A   Clear
10:35 PM 32.0 °F - 17.6 °F 55% 30.31 in 10.0 mi Calm Calm - N/A   Clear
10:55 PM 32.0 °F 28.7 °F 17.6 °F 55% 30.32 in 10.0 mi SW 3.5 mph - N/A   Clear
11:15 PM 32.0 °F - 17.6 °F 55% 30.33 in 10.0 mi Calm Calm - N/A   Clear
11:35 PM 30.2 °F 25.4 °F 17.6 °F 60% 30.33 in 10.0 mi SE 4.6 mph - N/A   Clear
11:55 PM 32.0 °F 28.7 °F 17.6 °F 55% 30.32 in 10.0 mi ESE 3.5 mph - N/A   Clear